Location: S�deilles
(46.7500°N, 6.9329°E)
Time: 16:39:29
(UTC+00:00)

Cosmos 1943 Rocket - Pass Details

Date: 08 March 2021
Orbit: 811 x 844 km, 71.0° (Epoch: 22 April)

Event Time Altitude Azimuth Distance (km) Brightness Sun altitude
Rises 19:07:24 0° 339° (NNW) 3,414 5.8 -17.7°
Reaches altitude 10° 19:10:34 10° 357° (N) 2,474 4.8 -18.2°
Maximum altitude 19:14:39 20° 43° (NE) 1,868 3.7 -18.9°
Enters shadow 19:15:27 19° 54° (NE) 1,893 3.7 -19.0°
